Regional Weather Roundup
Issued by NWS Green Bay, WI

Home | Current Version | Previous Version | Graphics & Text | Print | Product List | Glossary Off
Versions: 1 2 3 4 5 6 7 8 9 10 11 12 13 14 15 16 17 18 19 20 21 22 23 24 25 26 27 28 29 30 31 32 33 34 35 36 37 38 39 40 41 42 43 44 45 46 47 48 49 50

000
ASUS43 KGRB 120410
RWRGRB

NORTH-CENTRAL AND NORTHEAST WISCONSIN REGIONAL WEATHER ROUNDUP
NATIONAL WEATHER SERVICE GREEN BAY WI
1100 PM CDT FRI JUL 11 2014

WIZ005-009-010>012-018-019-120500-
NORTH CENTRAL WISCONSIN

CITY           SKY/WX    TMP DP  RH WIND       PRES   REMARKS
IRONWOOD       PTCLDY    70  63  78 SW10      29.98R
MANITOWISH WTR CLOUDY    67  64  90 SW8G17    30.04S
ARBOR VITAE    CLOUDY    68  64  84 SW10      30.06S
EAGLE RIVER    CLOUDY    67  58  70 SW9       30.05S
LAND O LAKES   CLOUDY    68  60  75 SW6       30.06R
RHINELANDER    CLOUDY    67  59  75 SW8       30.07S
PHILLIPS       CLOUDY    67  64  88 S5        30.05R
ANTIGO         PTCLDY    64  57  77 SW6       30.08S
TOMAHAWK       CLOUDY    67  59  77 CALM      30.07S
MERRILL        CLOUDY    69  61  75 S6        30.07S
$$

WIZ013-073-120500-
NORTHEAST WISCONSIN

CITY           SKY/WX    TMP DP  RH WIND       PRES   REMARKS
IRON MOUNTAIN  CLOUDY    69  57  65 S7        30.03S
MARINETTE      CLEAR     70  54  56 SW6       30.04S
OCONTO         CLEAR     70  56  61 S6        30.04F
$$

WIZ017-030-035>037-045-120500-
CENTRAL WISCONSIN

CITY           SKY/WX    TMP DP  RH WIND       PRES   REMARKS
MEDFORD        MOCLDY    66  63  88 S6        30.07S
WAUSAU         CLOUDY    70  59  68 S7        30.06R
MOSINEE        MOCLDY    68  61  77 S7        30.09R
MARSHFIELD     MOCLDY    69  62  78 S8        30.06S
WISC RAPIDS    CLOUDY    71  60  68 S7        30.08F
STEVENS POINT  MOCLDY    68  57  68 S10       30.07S
WAUPACA        CLOUDY    70  60  71 SE3       30.09S
SHAWANO        CLOUDY    71  57  61 SW7       30.07S
CLINTONVILLE   MOCLDY    70  57  64 S7        30.06F
$$

WIZ038-039-048-051-120500-
FOX VALLEY

CITY           SKY/WX    TMP DP  RH WIND       PRES   REMARKS
NWS GREEN BAY  PTCLDY    70  56  61 S7        30.07F
APPLETON       MOCLDY    70  55  60 S8        30.10S
OSHKOSH        MOCLDY    66  59  78 S8        30.08F
FOND DU LAC    MOCLDY    64  57  78 S5        30.10S
$$

WIZ022-050-052-120500-
EAST CENTRAL WISCONSIN

CITY           SKY/WX    TMP DP  RH WIND       PRES   REMARKS
STURGEON BAY   CLEAR     66  54  63 S10G16    30.07F
MANITOWOC      MOCLDY    69  53  56 S7        30.10F
SHEBOYGAN      PTCLDY    65  54  67 S6        30.11S
$$

LMZ563-521-522-541>543-120500-
LAKESHORE

STATION/POSITION TIME  TEMP    WIND        PRES    VSBY  WAVE
                       AIR SEA DIR/SP/G                  HT/PER
                 (UTC) (F)     (DEG/KT/KT) (MB)    (MI)  (FT/S)
SHEBOYGAN LKSHOR 0400   68     200/ 10/ 11 1019.4S
KEWAUNEE LKSHORE 0400   54     190/  6/  8 1019.2F
TWO RIVERS CG    0300   58                   N/A
NORTHPORT PIER   0400   63     160/  5/  8 1017.9S
N MID LAKE BUOY  0400   58 53  200/ 17/ 19 1017.4F         3/ 5
MENOMINEE LKSHOR 0400   69     180/  8/ 11 1018.1F
$$



USA.gov is the U.S. government's official web portal to all federal, state and local government web resources and services.